• In Portugal
  • List of Countries
  • For 7 days
  • Water Temperature
  • Satellite Maps
  • Weather Map
  • Weather Widgets
  • user-avatar
    Login

    Hourly Weather Tibissa

    Today, 24 February, Saturday

    Time Temperature Precipitation Wind Pressure Humidity
    00:00 +4°C° 0 mm 1 mps 676 mmHg 70%
    01:00 +3°C° 0 mm 2 mps 677 mmHg 67%
    02:00 +5°C° 0 mm 1 mps 677 mmHg 66%
    03:00 +5°C° 0 mm 1 mps 677 mmHg 65%
    04:00 +5°C° 0 mm 1 mps 676 mmHg 65%
    05:00 +4°C° 0 mm 1 mps 676 mmHg 65%
    06:00 +4°C° 0 mm 1 mps 676 mmHg 66%
    07:00 +4°C° 0 mm 1 mps 676 mmHg 67%
    08:00 +5°C° 0 mm 2 mps 677 mmHg 60%
    09:00 +5°C° 0 mm 3 mps 677 mmHg 54%
    10:00 +8°C° 0 mm 3 mps 677 mmHg 47%
    11:00 +8°C° 0 mm 4 mps 677 mmHg 44%
    12:00 +10°C° 0 mm 5 mps 677 mmHg 41%
    13:00 +11°C° 0 mm 6 mps 677 mmHg 37%
    14:00 +11°C° 0 mm 6 mps 677 mmHg 36%
    15:00 +11°C° 0 mm 6 mps 676 mmHg 35%
    16:00 +13°C° 0 mm 6 mps 676 mmHg 34%
    17:00 +12°C° 0.1 mm 5 mps 676 mmHg 39%
    18:00 +11°C° 0.1 mm 4 mps 676 mmHg 44%
    19:00 +10°C° 0.1 mm 3 mps 675 mmHg 49%
    20:00 +9°C° 0.1 mm 2 mps 675 mmHg 55%
    21:00 +8°C° 0.1 mm 2 mps 676 mmHg 60%
    22:00 +7°C° 0.1 mm 2 mps 676 mmHg 66%
    23:00 +7°C° 0.1 mm 2 mps 676 mmHg 70%

    Tomorrow, 25 February, Sunday

    Time Temperature Precipitation Wind Pressure Humidity
    00:00 +6°C° 0.1 mm 2 mps 676 mmHg 75%
    01:00 +6°C° 0.1 mm 2 mps 676 mmHg 79%
    02:00 +4°C° 0.1 mm 3 mps 676 mmHg 82%
    03:00 +4°C° 0.1 mm 3 mps 676 mmHg 85%
    04:00 +4°C° 0.1 mm 3 mps 676 mmHg 88%
    05:00 +4°C° 0 mm 4 mps 676 mmHg 87%
    06:00 +3°C° 0 mm 4 mps 676 mmHg 86%
    07:00 +3°C° 0 mm 4 mps 677 mmHg 86%
    08:00 +4°C° 0 mm 4 mps 677 mmHg 81%
    09:00 +5°C° 0 mm 5 mps 678 mmHg 75%
    10:00 +5°C° 0 mm 5 mps 678 mmHg 70%
    11:00 +6°C° 0 mm 5 mps 678 mmHg 64%
    12:00 +7°C° 0 mm 5 mps 679 mmHg 58%
    13:00 +8°C° 0 mm 5 mps 679 mmHg 51%
    14:00 +8°C° 0 mm 5 mps 679 mmHg 49%
    15:00 +8°C° 0 mm 5 mps 678 mmHg 46%
    16:00 +9°C° 0 mm 6 mps 678 mmHg 43%
    17:00 +8°C° 0 mm 5 mps 678 mmHg 48%
    18:00 +7°C° 0 mm 5 mps 678 mmHg 52%
    19:00 +6°C° 0 mm 4 mps 678 mmHg 57%
    20:00 +5°C° 0 mm 4 mps 679 mmHg 60%
    21:00 +4°C° 0 mm 4 mps 679 mmHg 63%
    22:00 +4°C° 0 mm 3 mps 679 mmHg 66%
    23:00 +4°C° 0 mm 3 mps 679 mmHg 66%

    Day after tomorrow, 26 February, Monday

    Time Temperature Precipitation Wind Pressure Humidity
    00:00 +3°C° 0 mm 3 mps 679 mmHg 65%
    01:00 +3°C° 0 mm 3 mps 679 mmHg 64%
    02:00 +3°C° 0 mm 3 mps 679 mmHg 63%
    03:00 +3°C° 0 mm 3 mps 679 mmHg 61%
    04:00 +2°C° 0 mm 3 mps 679 mmHg 60%
    05:00 +2°C° 0 mm 3 mps 678 mmHg 59%
    06:00 +3°C° 0 mm 2 mps 678 mmHg 58%
    07:00 +3°C° 0 mm 2 mps 678 mmHg 57%
    08:00 +4°C° 0 mm 3 mps 679 mmHg 51%
    09:00 +5°C° 0 mm 3 mps 679 mmHg 44%
    10:00 +8°C° 0 mm 3 mps 680 mmHg 37%
    11:00 +10°C° 0 mm 4 mps 680 mmHg 34%
    12:00 +10°C° 0 mm 5 mps 680 mmHg 31%
    13:00 +12°C° 0 mm 5 mps 679 mmHg 27%
    14:00 +12°C° 0 mm 5 mps 679 mmHg 26%
    15:00 +13°C° 0 mm 6 mps 679 mmHg 26%
    16:00 +13°C° 0 mm 6 mps 678 mmHg 25%
    17:00 +12°C° 0 mm 5 mps 678 mmHg 30%
    18:00 +10°C° 0 mm 5 mps 677 mmHg 35%
    19:00 +8°C° 0 mm 4 mps 677 mmHg 41%
    20:00 +8°C° 0 mm 4 mps 677 mmHg 45%
    21:00 +8°C° 0 mm 3 mps 677 mmHg 49%
    22:00 +7°C° 0 mm 3 mps 677 mmHg 54%
    23:00 +7°C° 0 mm 3 mps 676 mmHg 54%

    27 February, Tuesday

    Time Temperature Precipitation Wind Pressure Humidity
    00:00 +7°C° 0 mm 3 mps 676 mmHg 54%
    01:00 +7°C° 0 mm 3 mps 675 mmHg 54%
    02:00 +7°C° 0.5 mm 2 mps 675 mmHg 60%
    03:00 +7°C° 0.5 mm 2 mps 674 mmHg 67%
    04:00 +7°C° 0.5 mm 2 mps 674 mmHg 73%
    05:00 +7°C° 0.7 mm 2 mps 674 mmHg 75%
    06:00 +7°C° 0.7 mm 2 mps 674 mmHg 76%
    07:00 +7°C° 0.7 mm 2 mps 674 mmHg 78%
    08:00 +7°C° 0.3 mm 2 mps 674 mmHg 76%
    09:00 +7°C° 0.3 mm 2 mps 674 mmHg 75%
    10:00 +8°C° 0.3 mm 2 mps 675 mmHg 74%
    11:00 +9°C° 0.1 mm 3 mps 675 mmHg 70%
    12:00 +10°C° 0.1 mm 4 mps 675 mmHg 66%
    13:00 +10°C° 0.1 mm 5 mps 676 mmHg 61%
    14:00 +10°C° 0.2 mm 5 mps 676 mmHg 62%
    15:00 +9°C° 0.2 mm 5 mps 676 mmHg 62%
    16:00 +9°C° 0.2 mm 5 mps 676 mmHg 63%
    17:00 +8°C° 0 mm 4 mps 676 mmHg 65%
    18:00 +9°C° 0 mm 3 mps 677 mmHg 68%
    19:00 +8°C° 0 mm 3 mps 677 mmHg 71%
    20:00 +8°C° 0 mm 2 mps 678 mmHg 73%
    21:00 +8°C° 0 mm 1 mps 678 mmHg 76%
    22:00 +8°C° 0 mm 1 mps 679 mmHg 78%
    23:00 +8°C° 0 mm 1 mps 679 mmHg 76%

    28 February, Wednesday

    Time Temperature Precipitation Wind Pressure Humidity
    00:00 +7°C° 0 mm 2 mps 679 mmHg 74%
    01:00 +7°C° 0 mm 2 mps 679 mmHg 73%
    02:00 +6°C° 0 mm 2 mps 679 mmHg 73%
    03:00 +6°C° 0 mm 2 mps 679 mmHg 74%
    04:00 +6°C° 0 mm 2 mps 679 mmHg 75%
    05:00 +6°C° 0 mm 2 mps 680 mmHg 75%
    06:00 +6°C° 0 mm 2 mps 680 mmHg 76%
    07:00 +5°C° 0 mm 3 mps 680 mmHg 76%
    08:00 +8°C° 0 mm 3 mps 681 mmHg 67%
    09:00 +10°C° 0 mm 4 mps 682 mmHg 58%
    10:00 +12°C° 0 mm 5 mps 683 mmHg 48%
    11:00 +14°C° 0 mm 6 mps 683 mmHg 45%
    12:00 +15°C° 0 mm 7 mps 683 mmHg 42%
    13:00 +16°C° 0 mm 9 mps 683 mmHg 39%
    14:00 +16°C° 0 mm 9 mps 682 mmHg 39%
    15:00 +17°C° 0 mm 9 mps 682 mmHg 38%
    16:00 +17°C° 0 mm 10 mps 681 mmHg 38%
    17:00 +15°C° 0 mm 9 mps 681 mmHg 42%
    18:00 +13°C° 0 mm 8 mps 681 mmHg 45%
    19:00 +12°C° 0 mm 8 mps 681 mmHg 48%
    20:00 +11°C° 0 mm 8 mps 681 mmHg 47%
    21:00 +11°C° 0 mm 8 mps 681 mmHg 45%
    22:00 +11°C° 0 mm 7 mps 681 mmHg 44%
    23:00 +11°C° 0 mm 8 mps 681 mmHg 43%

    1 March, Thursday

    Time Temperature Precipitation Wind Pressure Humidity
    00:00 +11°C° 0 mm 8 mps 681 mmHg 41%
    01:00 +11°C° 0 mm 8 mps 681 mmHg 40%
    02:00 +11°C° 0 mm 7 mps 680 mmHg 41%
    03:00 +10°C° 0 mm 6 mps 680 mmHg 42%
    04:00 +10°C° 0 mm 5 mps 679 mmHg 43%
    05:00 +10°C° 0 mm 4 mps 679 mmHg 44%
    06:00 +10°C° 0 mm 4 mps 679 mmHg 45%
    07:00 +8°C° 0 mm 4 mps 679 mmHg 45%
    08:00 +12°C° 0 mm 5 mps 679 mmHg 39%
    09:00 +14°C° 0 mm 7 mps 679 mmHg 33%
    10:00 +16°C° 0 mm 9 mps 680 mmHg 26%
    11:00 +18°C° 0 mm 10 mps 679 mmHg 26%
    12:00 +19°C° 0 mm 11 mps 679 mmHg 25%
    13:00 +21°C° 0 mm 12 mps 679 mmHg 24%
    14:00 +20°C° 0 mm 13 mps 678 mmHg 24%
    15:00 +20°C° 0 mm 13 mps 677 mmHg 24%
    16:00 +20°C° 0 mm 13 mps 676 mmHg 24%
    17:00 +19°C° 0 mm 11 mps 676 mmHg 26%
    18:00 +18°C° 0 mm 9 mps 676 mmHg 28%
    19:00 +17°C° 0 mm 7 mps 676 mmHg 30%
    20:00 +15°C° 0 mm 6 mps 677 mmHg 35%
    21:00 +14°C° 0 mm 5 mps 677 mmHg 40%
    22:00 +13°C° 0 mm 5 mps 678 mmHg 44%
    23:00 +13°C° 0 mm 5 mps 678 mmHg 46%
    Show more